This demonstration page uses our WeatherBlox Daily Observations layout. Learn more.

38.89511, -77.03637

Hourly Observations for July 21, 2019

Temp ( °F °C ) Dew Point ( °F °C ) Humidity (%) Winds ( mph kmh ) Pressure ( in mb ) Visibility ( mi km ) Precip ( " mm )
12:52 am 00:52 Cloudy 88 31.1 69 20.6 54 54 NW 6 9 29.85 1011 10 16.09344 0 0
1:52 am 01:52 Partly Cloudy 86 30 72 22.2 63 63 WNW 5 7 29.85 1011 10 16.09344 0 0
2:52 am 02:52 Partly Cloudy 84 28.9 74 23.3 72 72 Calm 29.85 1011 10 16.09344 0 0
3:52 am 03:52 Partly Cloudy 85 29.4 74 23.3 70 70 E 3 6 29.85 1011 10 16.09344 0 0
4:52 am 04:52 Mostly Cloudy 84 28.9 73 22.8 70 70 Calm 29.83 1010 10 16.09344 0 0
5:52 am 05:52 Partly Cloudy 82 27.8 72 22.2 72 72 SSW 7 11 29.85 1011 10 16.09344 0 0
6:52 am 06:52 Mostly Cloudy 82 27.8 71 21.7 69 69 SSW 7 11 29.88 1012 10 16.09344 0 0
7:52 am 07:52 Mostly Sunny 86 30 72 22.2 63 63 W 5 7 29.88 1012 10 16.09344 0 0
8:52 am 08:52 Partly Cloudy 89 31.7 72 22.2 57 57 W 5 7 29.88 1012 10 16.09344 0 0
9:52 am 09:52 Mostly Sunny 93 33.9 73 22.8 52 52 WNW 13 20 29.88 1012 10 16.09344 0 0
10:52 am 10:52 Mostly Sunny 94 34.4 73 22.8 51 51 NW 14 22 29.88 1012 10 16.09344 0 0
11:52 am 11:52 Mostly Sunny 95 35 73 22.8 49 49 WNW 9 15 29.88 1012 10 16.09344 0 0
12:52 pm 12:52 Mostly Sunny 97 36.1 72 22.2 45 45 W 13 20 29.85 1011 10 16.09344 0 0
1:52 pm 13:52 Partly Cloudy 98 36.7 72 22.2 43 43 WNW 13 20 29.85 1011 10 16.09344 0 0
2:52 pm 14:52 Partly Cloudy 96 35.6 73 22.8 47 47 N 13 20 29.85 1011 10 16.09344 0 0
3:52 pm 15:52 Mostly Cloudy 96 35.6 74 23.3 49 49 N 8 13 29.83 1010 10 16.09344 0 0
4:52 pm 16:52 Mostly Cloudy 98 36.7 73 22.8 45 45 SW 10 17 29.83 1010 10 16.09344 0 0
5:52 pm 17:52 Mostly Cloudy 97 36.1 71 21.7 43 43 SW 14 22 29.83 1010 10 16.09344 0 0
6:19 pm 18:19 Mostly Cloudy with Light Rain 97 36.1 72 22.2 45 45 WSW 14 22 29.83 1010 10 16.09344 0.001 0.001
6:27 pm 18:27 Mostly Cloudy 97 36.1 72 22.2 45 45 SW 12 19 29.83 1010 10 16.09344 0.001 0.001
6:52 pm 18:52 Mostly Cloudy with Light Rain 96 35.6 72 22.2 46 46 SW 12 19 29.83 1010 10 16.09344 0.001 0.001
7:40 pm 19:40 Mostly Cloudy with Thunderstorms 93 33.9 70 21.1 47 47 W 20 31 29.85 1011 10 16.09344 0.001 0.001
7:52 pm 19:52 Mostly Cloudy with Light Thunderstorms 91 32.8 69 20.6 49 49 WNW 15 24 29.88 1012 10 16.09344 0.001 0.001
8:26 pm 20:26 Mostly Cloudy 84 28.9 70 21.1 63 63 NNW 14 22 29.88 1012 10 16.09344 0.001 0.001
8:52 pm 20:52 Mostly Cloudy 84 28.9 69 20.6 61 61 Calm 29.85 1011 10 16.09344 0.001 0.001
9:52 pm 21:52 Mostly Cloudy 81 27.2 68 20 65 65 NNW 6 9 29.85 1011 10 16.09344 0 0
10:52 pm 22:52 Cloudy 83 28.3 67 19.4 59 59 W 7 11 29.88 1012 10 16.09344 0 0
11:52 pm 23:52 Mostly Cloudy 81 27.2 68 20 65 65 WNW 6 9 29.88 1012 10 16.09344 0 0

Powered by AerisWeather